Time,TemperatureF,DewpointF,PressureIn,WindDirection,WindDirectionDegrees,WindSpeedMPH,WindSpeedGustMPH,Humidity,HourlyPrecipIn,Conditions,Clouds,dailyrainin,SolarRadiationWatts/m^2,SoftwareType,DateUTC
2013-09-16 00:12:00,56.9,53.0,30.13,SW,220,0.0,0.0,88,0.00,,,0.00,0,weatherlink.com 1.10,2013-09-16 04:12:00,
2013-09-16 00:27:00,56.3,54.0,30.12,SW,220,0.0,2.0,90,0.00,,,0.00,0,weatherlink.com 1.10,2013-09-16 04:27:00,
2013-09-16 00:42:00,56.1,54.0,30.12,SW,220,0.0,1.0,91,0.00,,,0.00,0,weatherlink.com 1.10,2013-09-16 04:42:00,
2013-09-16 00:57:00,56.4,54.0,30.12,SW,220,0.0,1.0,91,0.00,,,0.00,0,weatherlink.com 1.10,2013-09-16 04:57:00,
2013-09-16 01:13:00,57.4,55.0,30.11,SW,219,2.0,4.0,92,0.00,,,0.00,0,weatherlink.com 1.10,2013-09-16 05:13:00,
2013-09-16 01:29:00,57.7,55.0,30.11,SW,219,0.0,3.0,91,0.00,,,0.00,0,weatherlink.com 1.10,2013-09-16 05:29:00,
2013-09-16 01:42:00,58.0,55.0,30.11,SW,219,0.0,3.0,91,0.00,,,0.00,0,weatherlink.com 1.10,2013-09-16 05:42:00,
2013-09-16 01:57:00,58.2,56.0,30.11,SW,219,2.0,3.0,92,0.00,,,0.00,0,weatherlink.com 1.10,2013-09-16 05:57:00,
2013-09-16 02:12:00,58.2,56.0,30.11,WSW,257,2.0,4.0,91,0.00,,,0.00,0,weatherlink.com 1.10,2013-09-16 06:12:00,
2013-09-16 02:28:00,58.7,56.0,30.10,SW,231,2.0,4.0,91,0.00,,,0.00,0,weatherlink.com 1.10,2013-09-16 06:28:00,
2013-09-16 02:42:00,58.9,57.0,30.09,SSW,211,3.0,6.0,92,0.00,,,0.00,0,weatherlink.com 1.10,2013-09-16 06:42:00,
2013-09-16 02:57:00,59.3,57.0,30.09,SSW,206,2.0,7.0,91,0.00,,,0.00,0,weatherlink.com 1.10,2013-09-16 06:57:00,
2013-09-16 03:13:00,59.2,57.0,30.09,SW,218,2.0,6.0,91,0.00,,,0.00,0,weatherlink.com 1.10,2013-09-16 07:13:00,
2013-09-16 03:28:00,59.5,57.0,30.09,WSW,244,6.0,7.0,91,0.00,,,0.00,0,weatherlink.com 1.10,2013-09-16 07:28:00,
2013-09-16 03:43:00,59.7,57.0,30.08,SSW,194,1.0,5.0,91,0.00,,,0.00,0,weatherlink.com 1.10,2013-09-16 07:43:00,
2013-09-16 03:58:00,60.0,57.0,30.08,WSW,238,0.0,9.0,91,0.00,,,0.00,0,weatherlink.com 1.10,2013-09-16 07:58:00,
2013-09-16 04:13:00,59.8,57.0,30.08,WSW,250,3.0,4.0,91,0.00,,,0.00,0,weatherlink.com 1.10,2013-09-16 08:13:00,
2013-09-16 04:28:00,60.7,58.0,30.07,WSW,238,3.0,7.0,91,0.00,,,0.00,0,weatherlink.com 1.10,2013-09-16 08:28:00,
2013-09-16 04:43:00,61.3,58.0,30.07,SSE,162,3.0,9.0,90,0.00,,,0.00,0,weatherlink.com 1.10,2013-09-16 08:43:00,
2013-09-16 04:58:00,61.4,59.0,30.07,WSW,247,3.0,5.0,90,0.00,,,0.00,0,weatherlink.com 1.10,2013-09-16 08:58:00,
2013-09-16 05:13:00,61.4,59.0,30.07,WSW,237,1.0,5.0,90,0.00,,,0.00,0,weatherlink.com 1.10,2013-09-16 09:13:00,
2013-09-16 05:28:00,62.0,59.0,30.07,SW,236,2.0,7.0,90,0.00,,,0.00,0,weatherlink.com 1.10,2013-09-16 09:28:00,
2013-09-16 05:43:00,62.6,59.0,30.06,WSW,250,0.0,9.0,89,0.00,,,0.00,0,weatherlink.com 1.10,2013-09-16 09:43:00,
2013-09-16 05:58:00,62.5,59.0,30.07,West,273,0.0,7.0,89,0.00,,,0.00,0,weatherlink.com 1.10,2013-09-16 09:58:00,
2013-09-16 06:13:00,62.2,59.0,30.07,SW,225,3.0,6.0,89,0.00,,,0.00,0,weatherlink.com 1.10,2013-09-16 10:13:00,
2013-09-16 06:28:00,62.2,59.0,30.07,West,278,2.0,5.0,90,0.00,,,0.00,0,weatherlink.com 1.10,2013-09-16 10:28:00,
2013-09-16 06:43:00,62.0,59.0,30.07,West,275,2.0,6.0,90,0.00,,,0.00,0,weatherlink.com 1.10,2013-09-16 10:43:00,
2013-09-16 06:58:00,61.3,59.0,30.08,West,275,2.0,4.0,91,0.00,,,0.00,14,weatherlink.com 1.10,2013-09-16 10:58:00,
2013-09-16 07:13:00,61.1,59.0,30.08,WNW,292,0.0,3.0,92,0.00,,,0.00,23,weatherlink.com 1.10,2013-09-16 11:13:00,
2013-09-16 07:28:00,61.6,60.0,30.07,West,259,0.0,4.0,93,0.00,,,0.00,62,weatherlink.com 1.10,2013-09-16 11:28:00,
2013-09-16 07:43:00,62.9,61.0,30.08,WNW,301,4.0,6.0,92,0.00,,,0.00,84,weatherlink.com 1.10,2013-09-16 11:43:00,
2013-09-16 07:58:00,63.6,61.0,30.08,NW,314,5.0,7.0,91,0.00,,,0.00,84,weatherlink.com 1.10,2013-09-16 11:58:00,
2013-09-16 08:13:00,63.7,61.0,30.08,WSW,254,4.0,8.0,90,0.00,,,0.00,63,weatherlink.com 1.10,2013-09-16 12:13:00,
2013-09-16 08:28:00,63.6,61.0,30.08,NNW,335,2.0,8.0,90,0.00,,,0.00,98,weatherlink.com 1.10,2013-09-16 12:28:00,
2013-09-16 08:43:00,63.8,61.0,30.08,West,267,4.0,10.0,90,0.00,,,0.00,83,weatherlink.com 1.10,2013-09-16 12:43:00,
2013-09-16 08:58:00,63.9,61.0,30.09,WNW,302,1.0,7.0,89,0.00,,,0.00,65,weatherlink.com 1.10,2013-09-16 12:58:00,
2013-09-16 09:14:00,63.6,61.0,30.09,West,279,2.0,6.0,90,0.00,,,0.00,30,weatherlink.com 1.10,2013-09-16 13:14:00,
2013-09-16 09:28:00,63.3,60.0,30.09,WNW,302,2.0,8.0,89,0.00,,,0.00,37,weatherlink.com 1.10,2013-09-16 13:28:00,
2013-09-16 09:43:00,62.9,60.0,30.10,North,5,4.0,11.0,89,0.00,,,0.00,33,weatherlink.com 1.10,2013-09-16 13:43:00,
2013-09-16 09:58:00,62.6,59.0,30.10,NNW,345,8.0,14.0,88,0.00,,,0.00,37,weatherlink.com 1.10,2013-09-16 13:58:00,
2013-09-16 10:13:00,62.2,59.0,30.10,NNW,331,3.0,13.0,88,0.00,,,0.00,33,weatherlink.com 1.10,2013-09-16 14:13:00,
2013-09-16 10:30:00,62.1,59.0,30.10,NW,315,3.0,10.0,88,0.00,,,0.00,58,weatherlink.com 1.10,2013-09-16 14:30:00,
2013-09-16 10:43:00,61.6,58.0,30.10,North,360,2.0,6.0,89,0.01,,,0.01,70,weatherlink.com 1.10,2013-09-16 14:43:00,
2013-09-16 10:58:00,61.0,58.0,30.10,NNE,28,4.0,10.0,91,0.02,,,0.02,67,weatherlink.com 1.10,2013-09-16 14:58:00,
2013-09-16 11:14:00,61.1,59.0,30.10,NNW,337,4.0,8.0,92,0.02,,,0.02,97,weatherlink.com 1.10,2013-09-16 15:14:00,
2013-09-16 11:30:00,61.1,59.0,30.11,NNE,26,4.0,5.0,93,0.02,,,0.02,69,weatherlink.com 1.10,2013-09-16 15:30:00,
2013-09-16 11:44:00,61.0,59.0,30.11,North,360,1.0,5.0,93,0.01,,,0.02,25,weatherlink.com 1.10,2013-09-16 15:44:00,
2013-09-16 11:59:00,61.0,59.0,30.11,NNE,30,0.0,4.0,93,0.01,,,0.03,37,weatherlink.com 1.10,2013-09-16 15:59:00,
2013-09-16 12:14:00,61.1,59.0,30.11,NE,39,0.0,4.0,94,0.01,,,0.03,40,weatherlink.com 1.10,2013-09-16 16:14:00,
2013-09-16 12:29:00,61.0,59.0,30.11,West,271,0.0,3.0,94,0.01,,,0.03,91,weatherlink.com 1.10,2013-09-16 16:29:00,
2013-09-16 12:45:00,61.2,60.0,30.11,West,273,1.0,1.0,94,0.03,,,0.05,67,weatherlink.com 1.10,2013-09-16 16:45:00,
2013-09-16 12:59:00,61.4,59.0,30.10,West,267,0.0,2.0,93,0.02,,,0.05,91,weatherlink.com 1.10,2013-09-16 16:59:00,
2013-09-16 13:15:00,62.1,60.0,30.10,West,267,1.0,2.0,93,0.02,,,0.05,148,weatherlink.com 1.10,2013-09-16 17:15:00,
2013-09-16 13:30:00,62.1,60.0,30.11,West,267,1.0,1.0,92,0.01,,,0.05,83,weatherlink.com 1.10,2013-09-16 17:30:00,
2013-09-16 13:44:00,62.2,60.0,30.10,West,267,0.0,2.0,93,0.00,,,0.05,105,weatherlink.com 1.10,2013-09-16 17:44:00,
2013-09-16 13:59:00,62.6,60.0,30.10,NW,322,0.0,4.0,92,0.00,,,0.05,104,weatherlink.com 1.10,2013-09-16 17:59:00,
2013-09-16 14:14:00,62.8,61.0,30.10,NW,322,1.0,4.0,92,0.00,,,0.05,111,weatherlink.com 1.10,2013-09-16 18:14:00,
2013-09-16 14:29:00,63.6,61.0,30.10,NW,322,0.0,3.0,92,0.00,,,0.05,114,weatherlink.com 1.10,2013-09-16 18:29:00,
2013-09-16 14:44:00,63.7,60.0,30.10,NE,40,2.0,6.0,88,0.00,,,0.05,146,weatherlink.com 1.10,2013-09-16 18:44:00,
2013-09-16 14:59:00,64.4,59.0,30.09,WNW,299,4.0,4.0,83,0.00,,,0.05,271,weatherlink.com 1.10,2013-09-16 18:59:00,
2013-09-16 15:14:00,65.3,58.0,30.09,NNE,17,1.0,6.0,77,0.00,,,0.05,227,weatherlink.com 1.10,2013-09-16 19:14:00,
2013-09-16 15:44:00,68.2,58.0,30.09,NNW,338,5.0,6.0,71,0.00,,,0.05,631,weatherlink.com 1.10,2013-09-16 19:44:00,
2013-09-16 15:59:00,69.1,58.0,30.09,North,5,4.0,8.0,68,0.00,,,0.05,545,weatherlink.com 1.10,2013-09-16 19:59:00,
2013-09-16 16:14:00,68.3,57.0,30.08,WNW,297,4.0,6.0,67,0.00,,,0.05,564,weatherlink.com 1.10,2013-09-16 20:14:00,
2013-09-16 16:30:00,69.7,58.0,30.09,WNW,292,1.0,7.0,66,0.00,,,0.05,480,weatherlink.com 1.10,2013-09-16 20:30:00,
2013-09-16 16:47:00,68.6,58.0,30.09,WNW,297,2.0,6.0,68,0.00,,,0.05,211,weatherlink.com 1.10,2013-09-16 20:47:00,
2013-09-16 16:59:00,68.3,59.0,30.09,NW,305,1.0,4.0,72,0.00,,,0.05,137,weatherlink.com 1.10,2013-09-16 20:59:00,
2013-09-16 17:14:00,67.7,59.0,30.09,WNW,298,0.0,3.0,74,0.00,,,0.05,76,weatherlink.com 1.10,2013-09-16 21:14:00,
2013-09-16 17:31:00,67.4,59.0,30.09,WNW,298,0.0,0.0,74,0.00,,,0.05,60,weatherlink.com 1.10,2013-09-16 21:31:00,
2013-09-16 17:45:00,67.4,60.0,30.10,WNW,298,0.0,0.0,77,0.00,,,0.05,62,weatherlink.com 1.10,2013-09-16 21:45:00,
2013-09-16 18:00:00,67.0,60.0,30.10,WNW,298,0.0,0.0,78,0.00,,,0.05,54,weatherlink.com 1.10,2013-09-16 22:00:00,
2013-09-16 18:30:00,66.6,61.0,30.11,WNW,298,0.0,0.0,81,0.00,,,0.05,25,weatherlink.com 1.10,2013-09-16 22:30:00,
2013-09-16 18:46:00,65.1,60.0,30.11,WNW,298,0.0,0.0,84,0.00,,,0.05,11,weatherlink.com 1.10,2013-09-16 22:46:00,
2013-09-16 19:00:00,64.0,60.0,30.11,WNW,298,0.0,0.0,87,0.00,,,0.05,0,weatherlink.com 1.10,2013-09-16 23:00:00,
2013-09-16 19:15:00,63.3,60.0,30.12,WNW,298,1.0,2.0,88,0.00,,,0.05,0,weatherlink.com 1.10,2013-09-16 23:15:00,
2013-09-16 19:31:00,62.8,60.0,30.12,NNE,16,1.0,3.0,89,0.00,,,0.05,0,weatherlink.com 1.10,2013-09-16 23:31:00,
2013-09-16 19:45:00,61.9,59.0,30.13,NNE,15,2.0,3.0,89,0.00,,,0.05,0,weatherlink.com 1.10,2013-09-16 23:45:00,
2013-09-16 20:00:00,60.7,58.0,30.14,NNE,15,0.0,2.0,91,0.00,,,0.05,0,weatherlink.com 1.10,2013-09-17 00:00:00,
2013-09-16 20:15:00,59.7,57.0,30.15,NNE,15,1.0,2.0,91,0.00,,,0.05,0,weatherlink.com 1.10,2013-09-17 00:15:00,
2013-09-16 20:30:00,58.7,56.0,30.15,NNE,15,0.0,2.0,92,0.00,,,0.05,0,weatherlink.com 1.10,2013-09-17 00:30:00,
2013-09-16 20:45:00,58.4,56.0,30.16,NNE,15,1.0,3.0,92,0.00,,,0.05,0,weatherlink.com 1.10,2013-09-17 00:45:00,
2013-09-16 21:00:00,58.3,56.0,30.17,NNW,338,0.0,5.0,91,0.00,,,0.05,0,weatherlink.com 1.10,2013-09-17 01:00:00,
2013-09-16 21:16:00,57.9,55.0,30.17,North,9,1.0,3.0,90,0.00,,,0.05,0,weatherlink.com 1.10,2013-09-17 01:16:00,
2013-09-16 21:31:00,57.7,55.0,30.18,North,9,1.0,3.0,90,0.00,,,0.05,0,weatherlink.com 1.10,2013-09-17 01:31:00,
2013-09-16 21:46:00,57.0,54.0,30.19,North,9,1.0,3.0,90,0.00,,,0.05,0,weatherlink.com 1.10,2013-09-17 01:46:00,
2013-09-16 22:02:00,56.6,54.0,30.19,NNW,346,0.0,2.0,91,0.00,,,0.05,0,weatherlink.com 1.10,2013-09-17 02:02:00,
2013-09-16 22:15:00,56.8,54.0,30.20,NNW,344,1.0,4.0,91,0.00,,,0.05,0,weatherlink.com 1.10,2013-09-17 02:15:00,
2013-09-16 22:30:00,57.1,54.0,30.20,NW,322,2.0,5.0,89,0.00,,,0.05,0,weatherlink.com 1.10,2013-09-17 02:30:00,
2013-09-16 22:45:00,57.7,54.0,30.21,North,350,4.0,9.0,88,0.00,,,0.05,0,weatherlink.com 1.10,2013-09-17 02:45:00,
2013-09-16 23:02:00,58.3,54.0,30.21,NNW,334,3.0,6.0,85,0.00,,,0.05,0,weatherlink.com 1.10,2013-09-17 03:02:00,
2013-09-16 23:15:00,58.1,54.0,30.22,NNE,29,2.0,7.0,85,0.00,,,0.05,0,weatherlink.com 1.10,2013-09-17 03:15:00,
2013-09-16 23:30:00,58.0,53.0,30.23,NNW,332,4.0,8.0,84,0.00,,,0.05,0,weatherlink.com 1.10,2013-09-17 03:30:00,
2013-09-16 23:45:00,57.9,53.0,30.23,NNE,24,2.0,7.0,84,0.00,,,0.05,0,weatherlink.com 1.10,2013-09-17 03:45:00,